Tracking 25703 objects as of 2-Jul-2022
HD Live streaming from Space Station
objects crossing your sky now

EUTE 8 WEST A (AB 2)

Track EUTE 8 WEST A (AB 2) now!
EUTE 8 WEST A (AB 2) is classified as:


NORAD ID: 26927
Int'l Code: 2001-042A
Perigee: 36,287.2 km
Apogee: 36,291.4 km
Inclination: 2.9 °
Period: 1,461.5 minutes
Semi major axis: 42660 km
RCS: 14.2528 m2 (large)
Launch date: September 25, 2001
Source: European Telecommunications Satellite Organization (EUTE)
Launch site: FRENCH GUIANA (FRGUI)

European and American coverage.
aabbcc
Your satellite tracking list
Your tracking list is empty




NASA's NSSDC Master Catalog

Two Line Element Set (TLE):
1 26927U 01042A   22182.70778404 -.00000199  00000-0  00000-0 0  9995
2 26927   2.8857  86.9855 0000487 122.8389 303.0131  0.98529745 75902
Source of the keplerian elements: AFSPC